Weather History for KMCB - November, 2012

Change the Weather History Date:

Sunday, November 4, 2012

  Actual Average Record
Temperature  
Mean Temperature 62 °F -  
Max Temperature 70 °F 70 °F 85 °F (1978)
Min Temperature 53 °F 46 °F 25 °F (1991)
Degree Days  
Heating Degree Days 4    
Growing Degree Days 12 (Base 50)    
Moisture  
Dew Point 59 °F    
Average Humidity 93    
Maximum Humidity 100    
Minimum Humidity 68    
Precipitation  
Precipitation 0.57 in - - ()
Sea Level Pressure  
Sea Level Pressure 30.09 in    
Wind  
Wind Speed 1 mph (NNE)    
Max Wind Speed 9 mph    
Max Gust Speed -    
Visibility 7 miles    
Events Fog , Rain , Thunderstorm    
Averages and records for this station are not official NWS values.
T = Trace of Precipitation, MM = Missing Value Source: NWS Daily Summary

Daily Weather History Graph

Daily Weather History Graph

Search for Another Location

Airport or City:

Trip Planner

Search our weather history database for the weather conditions in past years. The results will help you decide how hot, cold, wet, or windy it might be!

Date:

Astronomy

Nov. 04, 2012 Rise Set
Actual Time 6:20 AM CST 5:10 PM CST
Civil Twilight 5:55 AM CST 5:35 PM CST
Nautical Twilight 5:26 AM CST 6:04 PM CST
Astronomical Twilight 4:57 AM CST 6:32 PM CST
Moon 9:51 PM CST (11/4) 10:59 AM CST (11/4)
Length of Visible Light 11h 40m
Length of Day
10h 50m
Waning Gibbous, 72% of the Moon is Illuminated
Nov 4
Waning Gibbous
Nov 6
Last Quarter
Nov 13
New
Nov 20
First Quarter
Nov 28
Full

Hourly Weather History & Observations

Time (CST) Temp. Dew Point Humidity Pressure Visibility Wind Dir Wind Speed Gust Speed Precip Events Conditions
12:53 AM 61.0 °F 57.9 °F 90% 30.08 in 10.0 mi Calm Calm - N/A   Clear
1:53 AM 57.9 °F 57.0 °F 97% 30.08 in 9.0 mi Calm Calm - N/A   Clear
1:53 AM 57.9 °F 57.0 °F 97% 30.06 in 9.0 mi Calm Calm - N/A   Clear
2:22 AM 57.2 °F 55.4 °F 94% 30.07 in 8.0 mi Calm Calm - N/A   Scattered Clouds
2:30 AM 57.2 °F 55.4 °F 94% 30.07 in 1.8 mi Calm Calm - N/A   Mostly Cloudy
2:38 AM 57.2 °F 55.4 °F 94% 30.07 in 0.5 mi Calm Calm - N/A Fog Fog
2:49 AM 57.2 °F 55.4 °F 94% 30.07 in 2.0 mi Calm Calm - N/A   Overcast
2:53 AM 57.0 °F 55.9 °F 96% 30.06 in 1.0 mi Calm Calm - N/A   Mist
2:58 AM 55.4 °F 55.4 °F 100% 30.06 in 0.2 mi Calm Calm - N/A Fog Fog
3:12 AM 55.4 °F 55.4 °F 100% 30.06 in 1.0 mi Calm Calm - N/A   Mist
3:15 AM 55.4 °F 55.4 °F 100% 30.06 in 3.0 mi Calm Calm - N/A   Overcast
3:22 AM 55.4 °F 55.4 °F 100% 30.05 in 1.5 mi Calm Calm - N/A   Overcast
3:30 AM 53.6 °F 53.6 °F 100% 30.06 in 0.5 mi Calm Calm - N/A Fog Fog
3:35 AM 53.6 °F 53.6 °F 100% 30.06 in 2.0 mi Calm Calm - N/A   Overcast
3:45 AM 55.4 °F 55.4 °F 100% 30.06 in 6.0 mi Calm Calm - N/A   Overcast
3:53 AM 57.0 °F 55.9 °F 96% 30.05 in 9.0 mi Calm Calm - 0.01 in   Mostly Cloudy
4:12 AM 55.4 °F 55.4 °F 100% 30.07 in 5.0 mi Calm Calm - N/A   Scattered Clouds
4:53 AM 57.9 °F 57.0 °F 97% 30.08 in 9.0 mi NW 3.5 mph - N/A   Mostly Cloudy
5:53 AM 57.0 °F 55.9 °F 96% 30.09 in 7.0 mi Calm Calm - N/A   Scattered Clouds
6:06 AM 60.8 °F 57.2 °F 88% 30.11 in 8.0 mi North 4.6 mph - N/A   Mostly Cloudy
6:12 AM 62.6 °F 62.6 °F 100% 30.11 in 7.0 mi North 6.9 mph - N/A   Mostly Cloudy
6:17 AM 62.6 °F 62.6 °F 100% 30.10 in 7.0 mi North 9.2 mph - N/A Thunderstorm Mostly Cloudy
6:40 AM 64.4 °F 62.6 °F 94% 30.11 in 9.0 mi NE 9.2 mph - N/A   Overcast
6:53 AM 63.0 °F 61.0 °F 93% 30.10 in 10.0 mi ENE 5.8 mph - N/A   Overcast
6:58 AM 62.6 °F 60.8 °F 94% 30.11 in 10.0 mi Variable 3.5 mph - N/A Thunderstorm Thunderstorm
7:17 AM 62.6 °F 60.8 °F 94% 30.13 in 1.8 mi NNE 3.5 mph - 0.07 in Rain , Thunderstorm Heavy Rain
7:49 AM 62.6 °F 60.8 °F 94% 30.13 in 3.0 mi NE 3.5 mph - 0.35 in Rain , Thunderstorm Light Rain
7:53 AM 62.1 °F 60.1 °F 93% 30.12 in 4.0 mi ENE 4.6 mph - 0.36 in Rain , Thunderstorm Rain
8:05 AM 62.6 °F 60.8 °F 94% 30.13 in 6.0 mi NNE 5.8 mph - 0.01 in Rain , Thunderstorm Light Rain
8:38 AM 60.8 °F 60.8 °F 100% 30.15 in 5.0 mi East 3.5 mph - 0.03 in Rain Rain
8:53 AM 61.0 °F 61.0 °F 100% 30.12 in 4.0 mi East 5.8 mph - 0.07 in Rain Rain
9:53 AM 62.1 °F 61.0 °F 96% 30.13 in 6.0 mi Calm Calm - 0.13 in Rain Light Rain
10:20 AM 62.6 °F 60.8 °F 94% 30.14 in 10.0 mi Calm Calm - 0.00 in   Overcast
10:53 AM 64.0 °F 62.1 °F 93% 30.11 in 10.0 mi SE 4.6 mph - 0.00 in   Scattered Clouds
11:53 AM 66.0 °F 62.1 °F 87% 30.09 in 10.0 mi Calm Calm - N/A   Mostly Cloudy
12:12 PM 66.2 °F 62.6 °F 88% 30.09 in 10.0 mi Calm Calm - N/A   Mostly Cloudy
12:53 PM 66.9 °F 61.0 °F 81% 30.06 in 10.0 mi Calm Calm - N/A   Clear
1:53 PM 69.1 °F 62.1 °F 78% 30.06 in 10.0 mi North 5.8 mph - N/A   Mostly Cloudy
2:53 PM 68.0 °F 61.0 °F 78% 30.05 in 10.0 mi Calm Calm - N/A   Scattered Clouds
3:53 PM 70.0 °F 59.0 °F 68% 30.06 in 10.0 mi Calm Calm - N/A   Clear
4:53 PM 66.9 °F 60.1 °F 79% 30.06 in 10.0 mi NE 3.5 mph - N/A   Clear
5:53 PM 64.9 °F 61.0 °F 87% 30.06 in 10.0 mi Calm Calm - N/A   Clear
6:53 PM 63.0 °F 60.1 °F 90% 30.08 in 10.0 mi North 5.8 mph - N/A   Clear
7:53 PM 61.0 °F 59.0 °F 93% 30.09 in 10.0 mi North 3.5 mph - N/A   Clear
8:53 PM 60.1 °F 57.9 °F 93% 30.10 in 10.0 mi Calm Calm - N/A   Clear
9:53 PM 59.0 °F 57.0 °F 93% 30.09 in 9.0 mi North 6.9 mph - N/A   Clear
10:53 PM 57.0 °F 55.0 °F 93% 30.09 in 9.0 mi NNE 4.6 mph - N/A   Clear